Weather History for Lawrence, KS

Change the Weather History Date:

Wednesday, February 27, 2013

  Actual Average Record
Temperature  
Mean Temperature 35 °F 38 °F  
Max Temperature 39 °F 50 °F 69 °F (2006)
Min Temperature 30 °F 26 °F 8 °F (2002)
Degree Days  
Heating Degree Days 30 27  
Month to date heating degree days 861 837  
Since 1 July heating degree days 3798 3988  
Cooling Degree Days 0 0  
Month to date cooling degree days 0 0  
Year to date cooling degree days 0 0  
Moisture  
Dew Point 26 °F    
Average Humidity 73    
Maximum Humidity 92    
Minimum Humidity 54    
Precipitation  
Precipitation 0.01 in 0.04 in 1.00 in (2011)
Month to date precipitation 1.76 1.25  
Year to date precipitation 2.72 2.26  
Sea Level Pressure  
Sea Level Pressure 29.95 in    
Wind  
Wind Speed 14 mph (NW)    
Max Wind Speed 28 mph    
Max Gust Speed 31 mph    
Visibility 3 miles    
Events Snow    
T = Trace of Precipitation, MM = Missing Value Source: NWS Daily Summary

Daily Weather History Graph

Daily Weather History Graph

Search for Another Location

Airport:

Trip Planner

Search our weather history database for the weather conditions in past years. The results will help you decide how hot, cold, wet, or windy it might be!

Date:

Astronomy

Feb. 27, 2013 Rise Set
Actual Time 6:55 AM CST 6:11 PM CST
Civil Twilight 6:29 AM CST 6:38 PM CST
Nautical Twilight 5:58 AM CST 7:09 PM CST
Astronomical Twilight 5:27 AM CST 7:40 PM CST
Moon 8:32 PM CST (2/27) 7:33 AM CST (2/27)
Length of Visible Light 12h 09m
Length of Day
11h 15m
Waning Gibbous, 96% of the Moon is Illuminated
Feb 27
Waning Gibbous
Mar 4
Last Quarter
Mar 11
New
Mar 19
First Quarter
Mar 27
Full

Hourly Weather History & Observations

Time (CST) Temp. Windchill Dew Point Humidity Pressure Visibility Wind Dir Wind Speed Gust Speed Precip Events Conditions
12:25 AM 33.8 °F 25.3 °F 28.4 °F 81% 29.87 in 1.2 mi NNW 11.5 mph - 0.00 in Snow Light Snow
12:41 AM 32.0 °F 22.1 °F 28.4 °F 87% 29.87 in 0.8 mi NNW 13.8 mph - 0.00 in Snow Light Snow
12:52 AM 32.0 °F 23.0 °F 28.9 °F 88% 29.89 in 0.8 mi NNW 11.5 mph - 0.00 in Snow Light Snow
1:26 AM 32.0 °F 23.6 °F 28.4 °F 87% 29.87 in 1.0 mi NW 10.4 mph - 0.00 in Snow Light Snow
1:33 AM 32.0 °F 23.6 °F 28.4 °F 87% 29.87 in 1.0 mi NW 10.4 mph - 0.00 in Snow Light Snow
1:40 AM 32.0 °F 23.0 °F 28.4 °F 87% 29.87 in 1.0 mi NW 11.5 mph - 0.01 in Snow Light Snow
1:52 AM 32.0 °F 24.2 °F 28.0 °F 85% 29.89 in 1.0 mi NW 9.2 mph - 0.01 in Snow Light Snow
2:34 AM 30.2 °F 21.9 °F 28.4 °F 93% 29.86 in 0.8 mi NW 9.2 mph - 0.00 in Snow Light Snow
2:52 AM 30.9 °F 23.5 °F 28.0 °F 89% 29.88 in 0.8 mi WNW 8.1 mph - 0.00 in Snow Light Snow
3:15 AM 30.2 °F 22.6 °F 28.4 °F 93% 29.86 in 1.0 mi WNW 8.1 mph - 0.00 in Snow Light Snow
3:26 AM 30.2 °F 22.6 °F 28.4 °F 93% 29.86 in 1.0 mi WNW 8.1 mph - 0.00 in Snow Light Snow
3:52 AM 30.9 °F 23.5 °F 28.0 °F 89% 29.89 in 1.0 mi NW 8.1 mph - 0.00 in Snow Light Snow
4:32 AM 30.2 °F 21.9 °F 28.4 °F 93% 29.88 in 1.5 mi WNW 9.2 mph - 0.00 in   Overcast
4:52 AM 30.9 °F 22.2 °F 28.0 °F 89% 29.91 in 1.0 mi WNW 10.4 mph - 0.00 in Snow Light Snow
5:02 AM 30.2 °F 21.3 °F 28.4 °F 93% 29.89 in 1.0 mi NW 10.4 mph - 0.00 in Snow Light Snow
5:07 AM 30.2 °F 20.8 °F 28.4 °F 93% 29.89 in 0.8 mi WNW 11.5 mph - 0.00 in Snow Light Snow
5:14 AM 30.2 °F 20.8 °F 28.4 °F 93% 29.90 in 0.8 mi WNW 11.5 mph - 0.00 in Snow Light Snow
5:35 AM 30.2 °F 20.8 °F 28.4 °F 93% 29.91 in 1.0 mi WNW 11.5 mph - 0.00 in Snow Light Snow
5:52 AM 30.9 °F 21.2 °F 27.0 °F 85% 29.94 in 1.8 mi WNW 12.7 mph - 0.00 in   Overcast
6:00 AM 30.2 °F 20.2 °F 26.6 °F 86% 29.92 in 2.0 mi WNW 12.7 mph - N/A   Overcast
6:47 AM 30.2 °F 19.3 °F 26.6 °F 86% 29.93 in 3.0 mi NW 15.0 mph - N/A   Haze
6:52 AM 30.9 °F 20.7 °F 26.1 °F 82% 29.95 in 3.0 mi NW 13.8 mph - N/A   Haze
7:04 AM 30.2 °F 18.5 °F 26.6 °F 86% 29.93 in 2.5 mi NW 17.3 mph - N/A   Haze
7:52 AM 30.9 °F 19.8 °F 26.1 °F 82% 29.96 in 1.8 mi WNW 16.1 mph - N/A   Haze
8:03 AM 30.2 °F 18.9 °F 26.6 °F 86% 29.94 in 1.8 mi NW 16.1 mph - N/A   Haze
8:10 AM 30.2 °F 18.1 °F 26.6 °F 86% 29.94 in 2.0 mi NW 18.4 mph 24.2 mph N/A   Haze
8:52 AM 30.0 °F 19.1 °F 25.0 °F 82% 29.98 in 2.0 mi NW 15.0 mph 25.3 mph N/A   Haze
9:38 AM 30.2 °F 19.8 °F 24.8 °F 80% 29.95 in 3.0 mi NW 13.8 mph - N/A   Haze
9:47 AM 30.2 °F 20.2 °F 24.8 °F 80% 29.95 in 2.5 mi WNW 12.7 mph - N/A   Haze
9:52 AM 30.0 °F 19.5 °F 25.0 °F 82% 29.98 in 2.5 mi WNW 13.8 mph - N/A   Haze
10:19 AM 30.2 °F 19.3 °F 24.8 °F 80% 29.96 in 3.0 mi WNW 15.0 mph - N/A   Haze
10:35 AM 30.2 °F 18.5 °F 24.8 °F 80% 29.96 in 2.5 mi WNW 17.3 mph - N/A   Haze
10:50 AM 32.0 °F 19.8 °F 24.8 °F 75% 29.96 in 3.0 mi NW 20.7 mph 27.6 mph N/A   Haze
10:52 AM 32.0 °F 20.1 °F 24.1 °F 73% 29.98 in 3.0 mi NW 19.6 mph 27.6 mph N/A   Haze
11:05 AM 32.0 °F 20.5 °F 24.8 °F 75% 29.97 in 2.0 mi NW 18.4 mph 27.6 mph N/A   Haze
11:14 AM 32.0 °F 20.5 °F 24.8 °F 75% 29.97 in 1.8 mi WNW 18.4 mph - N/A   Haze
11:23 AM 32.0 °F 19.2 °F 24.8 °F 75% 29.97 in 2.0 mi WNW 23.0 mph - N/A   Haze
11:42 AM 32.0 °F 20.5 °F 24.8 °F 75% 29.97 in 3.0 mi WNW 18.4 mph 26.5 mph N/A   Haze
11:52 AM 33.1 °F 22.2 °F 25.0 °F 72% 29.99 in 4.0 mi NW 17.3 mph 26.5 mph N/A   Haze
12:01 PM 33.8 °F 22.2 °F 24.8 °F 70% 29.97 in 4.0 mi WNW 20.7 mph - N/A   Haze
12:52 PM 34.0 °F 23.4 °F 24.1 °F 67% 29.99 in 5.0 mi WNW 17.3 mph - N/A   Haze
1:52 PM 36.0 °F 25.0 °F 24.1 °F 62% 29.99 in 6.0 mi NW 20.7 mph 27.6 mph N/A   Haze
2:52 PM 37.9 °F 27.3 °F 25.0 °F 60% 29.99 in 7.0 mi NNW 21.9 mph 27.6 mph N/A   Overcast
3:52 PM 37.9 °F 29.2 °F 26.1 °F 62% 30.00 in 8.0 mi NNW 15.0 mph - N/A   Mostly Cloudy
4:52 PM 37.9 °F 29.6 °F 26.1 °F 62% 30.01 in 8.0 mi NNW 13.8 mph - N/A   Clear
5:52 PM 37.9 °F 28.9 °F 26.1 °F 62% 30.03 in 10.0 mi NNW 16.1 mph - N/A   Scattered Clouds
6:52 PM 37.0 °F 28.1 °F 24.1 °F 59% 30.05 in 10.0 mi NW 15.0 mph - N/A   Clear
8:52 PM 35.1 °F 27.4 °F 23.0 °F 61% 30.07 in 10.0 mi NW 10.4 mph - N/A   Clear
9:52 PM 36.0 °F 26.3 °F 25.0 °F 64% 30.09 in 10.0 mi NW 16.1 mph - N/A   Clear
10:52 PM 35.1 °F 25.5 °F 26.1 °F 70% 30.10 in 7.0 mi NW 15.0 mph - N/A   Clear
11:52 PM 34.0 °F 24.6 °F 26.1 °F 73% 30.09 in 6.0 mi NW 13.8 mph - N/A   Haze